Weather History for Carbondale, IL

Change the Weather History Date:

Friday, October 15, 2010

  Actual Average Record
Temperature  
Mean Temperature 58 °F -  
Max Temperature 72 °F 71 °F 91 °F (1938)
Min Temperature 41 °F 42 °F 24 °F (1939)
Degree Days  
Heating Degree Days 6    
Growing Degree Days 8 (Base 50)    
Moisture  
Dew Point 37 °F    
Average Humidity 49    
Maximum Humidity 86    
Minimum Humidity 23    
Precipitation  
Precipitation 0.00 in - - ()
Sea Level Pressure  
Sea Level Pressure 30.07 in    
Wind  
Wind Speed 7 mph (NNW)    
Max Wind Speed 14 mph    
Max Gust Speed 20 mph    
Visibility 10 miles    
Events      
Averages and records for this station are not official NWS values.
T = Trace of Precipitation, MM = Missing Value Source: NWS Daily Summary

Daily Weather History Graph

Daily Weather History Graph

Search for Another Location

Airport:

Trip Planner

Search our weather history database for the weather conditions in past years. The results will help you decide how hot, cold, wet, or windy it might be!

Date:

Astronomy

Oct. 15, 2010 Rise Set
Actual Time 7:05 AM CDT 6:19 PM CDT
Civil Twilight 6:38 AM CDT 6:45 PM CDT
Nautical Twilight 6:08 AM CDT 7:16 PM CDT
Astronomical Twilight 5:38 AM CDT 7:46 PM CDT
Moon 2:34 PM CDT (10/15) 12:06 AM CDT (10/15)
Length of Visible Light 12h 07m
Length of Day
11h 14m
First Quarter, 58% of the Moon is Illuminated
Oct 15
First Quarter
Oct 22
Full
Oct 30
Last Quarter
Nov 5
New
Nov 13
First Quarter

Hourly Weather History & Observations

Time (CDT) Temp. Dew Point Humidity Pressure Visibility Wind Dir Wind Speed Gust Speed Precip Events Conditions
12:52 AM 57.0 °F 37.9 °F 49% 29.93 in 10.0 mi WSW 10.4 mph - N/A   Partly Cloudy
2:52 AM 55.0 °F 37.9 °F 53% 29.93 in 10.0 mi West 5.8 mph - N/A   Partly Cloudy
3:52 AM 57.0 °F 39.9 °F 53% 29.94 in 10.0 mi WNW 6.9 mph - N/A   Partly Cloudy
4:52 AM 57.0 °F 39.9 °F 53% 29.96 in 10.0 mi NW 9.2 mph - N/A   Partly Cloudy
5:52 AM 54.0 °F 39.9 °F 59% 29.98 in 10.0 mi NW 9.2 mph - N/A   Scattered Clouds
6:52 AM 50.0 °F 39.9 °F 68% 30.02 in 10.0 mi NNW 4.6 mph - N/A   Partly Cloudy
7:52 AM 53.1 °F 39.9 °F 61% 30.05 in 10.0 mi WNW 5.8 mph - N/A   Partly Cloudy
8:52 AM 57.0 °F 39.9 °F 53% 30.08 in 10.0 mi NNW 8.1 mph - N/A   Clear
9:52 AM 61.0 °F 39.0 °F 44% 30.11 in 10.0 mi NNW 9.2 mph - N/A   Partly Cloudy
10:52 AM 64.0 °F 37.0 °F 37% 30.11 in 10.0 mi Variable 6.9 mph - N/A   Clear
11:52 AM 68.0 °F 34.0 °F 28% 30.11 in 10.0 mi North 11.5 mph 19.6 mph N/A   Partly Cloudy
12:52 PM 70.0 °F 33.1 °F 26% 30.09 in 10.0 mi North 10.4 mph - N/A   Clear
1:52 PM 70.0 °F 32.0 °F 25% 30.08 in 10.0 mi North 8.1 mph - N/A   Clear
2:52 PM 72.0 °F 32.0 °F 23% 30.08 in 10.0 mi North 9.2 mph - N/A   Partly Cloudy
3:52 PM 71.1 °F 33.1 °F 25% 30.08 in 10.0 mi North 13.8 mph 17.3 mph N/A   Partly Cloudy
4:52 PM 70.0 °F 33.1 °F 26% 30.09 in 10.0 mi North 9.2 mph - N/A   Partly Cloudy
5:52 PM 66.0 °F 34.0 °F 30% 30.10 in 10.0 mi North 8.1 mph - N/A   Partly Cloudy
6:52 PM 59.0 °F 36.0 °F 42% 30.11 in 10.0 mi Calm Calm - N/A   Partly Cloudy
7:52 PM 54.0 °F 36.0 °F 51% 30.13 in 10.0 mi Calm Calm - N/A   Partly Cloudy
8:52 PM 50.0 °F 41.0 °F 71% 30.14 in 10.0 mi Calm Calm - N/A   Partly Cloudy
9:52 PM 46.0 °F 39.9 °F 79% 30.15 in 10.0 mi Calm Calm - N/A   Partly Cloudy
10:52 PM 45.0 °F 41.0 °F 86% 30.16 in 10.0 mi Calm Calm - N/A   Partly Cloudy
11:52 PM 41.0 °F 37.0 °F 86% 30.15 in 10.0 mi Calm Calm - N/A   Clear